Regional Weather Roundup
Issued by NWS

Home | Current Version | Previous Version | Graphics & Text | Print | Product List | Glossary On
Versions: 1 2 3 4 5 6 7 8 9 10 11 12 13 14 15 16 17 18 19 20 21 22 23 24 25 26 27 28 29 30 31 32 33 34 35 36 37 38 39 40 41 42 43 44 45 46 47 48 49 50
000
ASUS43 KBIS 231610
RWRND

NORTH DAKOTA REGIONAL WEATHER ROUNDUP
NATIONAL WEATHER SERVICE BISMARCK ND
1100 AM CDT THU MAR 23 2017

NOTE: "FAIR" INDICATES FEW OR NO CLOUDS BELOW 12,000 FEET WITH NO
SIGNIFICANT WEATHER AND/OR OBSTRUCTIONS TO VISIBILITY.


NDZ001>003-009>011-017-231700-
NORTHWEST NORTH DAKOTA

CITY           SKY/WX    TMP DP  RH WIND       PRES   REMARKS
WILLISTON      FAIR      39  34  82 CALM      29.76F
MINOT          FAIR      41  32  70 W7        29.74R
MINOT AFB      CLOUDY    37  33  87 W3        29.74R
$$

NDZ018>021-031>035-040>046-231700-
SOUTHWEST NORTH DAKOTA

CITY           SKY/WX    TMP DP  RH WIND       PRES   REMARKS
BISMARCK       LGT RAIN  37  34  89 N6        29.77S FOG
DICKINSON      CLOUDY    46  36  68 N12       29.72S
GARRISON         N/A     34  30  85 SW5       29.76R
HETTINGER ARPT PTSUNNY   41  38  89 NE10      29.72F
$$

NDZ004>008-012>016-024-026-027-054-231700-
NORTHEAST NORTH DAKOTA

CITY           SKY/WX    TMP DP  RH WIND       PRES   REMARKS
GRAND FORKS    LGT RAIN  37  30  75 S16       29.82F
GRND FRKS AFB  MOSUNNY   35  28  76 S12       29.81F
DEVILS LAKE    PTSUNNY   33  29  85 SE9       29.78R
$$

NDZ022-023-025-028>030-036>039-047>053-231700-
SOUTHEAST NORTH DAKOTA

CITY           SKY/WX    TMP DP  RH WIND       PRES   REMARKS
FARGO          CLOUDY    41  32  70 S22G31    29.85F
JAMESTOWN      CLOUDY    38  33  82 S15       29.77F
$$




USA.gov is the U.S. government's official web portal to all federal, state and local government web resources and services.